Snow/Ice From: 17-12-2017 10:00 Until: 18-12-2017 06:00 warning for: Snow/Ice Level: Yellow info button

Although rather usual in this region, locally or potentially dangerous phenomena are expected. (such as local winds, summer thunderstorms, rising streams or high waves) Be aware and pay attention to the latest weather updates, especially if you carry out activities exposed to weather or close to a stream or shoreline. 


Meteo18 Weather Cam more information Meteo18 Weather Cam


Thunder radar more information blitzortung!


warning for Snow/Ice more information rain snow radar


Visit our other weather sites:

Template documentation
and downloads

And another site



Weather Underground History page Text

Daily Summary for February 14, 2016 Units:  Metric    English   Both
« Previous Day
Next Day »
Daily Weekly Monthly Yearly Custom
  High: Low: Average:
Temperature: 8.9 °C 3.6 °C 6.3 °C
Dew Point: 6.9 °C 2.1 °C 5.2 °C
Humidity: 96 % 82 % 92 %
Wind Speed: 9.7 km/h 0.0 km/h 1.9 km/h
Wind Gust: 19.3 km/h - -
Wind:- - South
Pressure: 1002.3 hPa 987.7 hPa -
Precipitation: 8.9 mm    
Historical Graphs
 
 
Tabular Data for February 14, 2016
Time Temperature Dew Point Pressure Wind Wind Speed Wind Gust Humidity Rainfall Rate (Hourly)
00:02 7.4 °C 6.2 °C 989.1 hPa SW 1.6 km/h 17.7 km/h 92 % 0.0 mm
00:12 7.4 °C 6.0 °C 989.1 hPa SW 4.8 km/h 11.3 km/h 91 % 0.0 mm
00:17 7.4 °C 6.0 °C 989.1 hPa SW 6.4 km/h 11.3 km/h 91 % 0.0 mm
00:22 7.4 °C 6.0 °C 989.1 hPa SW 6.4 km/h 12.9 km/h 91 % 0.0 mm
00:27 7.4 °C 6.0 °C 989.1 hPa SW 6.4 km/h 16.1 km/h 91 % 0.0 mm
00:32 7.4 °C 6.0 °C 989.1 hPa SW 8.0 km/h 16.1 km/h 91 % 0.0 mm
00:37 7.4 °C 6.0 °C 989.1 hPa West 1.6 km/h 16.1 km/h 91 % 0.0 mm
00:42 7.4 °C 6.0 °C 989.4 hPa WSW 3.2 km/h 14.5 km/h 91 % 0.0 mm
00:52 7.4 °C 6.0 °C 989.1 hPa Calm   19.3 km/h 91 % 0.0 mm
00:57 7.4 °C 6.0 °C 989.1 hPa SW 4.8 km/h 12.9 km/h 91 % 0.0 mm
01:02 7.3 °C 6.1 °C 989.1 hPa West 1.6 km/h 9.7 km/h 92 % 0.0 mm
01:07 7.3 °C 6.1 °C 989.1 hPa SW 3.2 km/h 11.3 km/h 92 % 0.0 mm
01:12 7.3 °C 6.1 °C 989.1 hPa SW 3.2 km/h 11.3 km/h 92 % 0.0 mm
01:17 7.3 °C 6.1 °C 989.1 hPa Calm   11.3 km/h 92 % 0.0 mm
01:22 7.3 °C 6.1 °C 989.1 hPa SW 3.2 km/h 9.7 km/h 92 % 0.0 mm
01:27 7.3 °C 6.1 °C 989.1 hPa WSW 3.2 km/h 9.7 km/h 92 % 0.0 mm
01:32 7.3 °C 6.1 °C 989.1 hPa West 3.2 km/h 6.4 km/h 92 % 0.0 mm
01:37 7.3 °C 6.1 °C 989.1 hPa SSW 1.6 km/h 11.3 km/h 92 % 0.0 mm
01:42 7.3 °C 6.1 °C 989.1 hPa SW 3.2 km/h 11.3 km/h 92 % 0.0 mm
01:47 7.3 °C 6.1 °C 989.1 hPa WSW 3.2 km/h 11.3 km/h 92 % 0.0 mm
01:52 7.3 °C 6.1 °C 989.1 hPa SW 1.6 km/h 9.7 km/h 92 % 0.0 mm
02:02 7.3 °C 6.1 °C 989.1 hPa SW 3.2 km/h 9.7 km/h 92 % 0.0 mm
02:07 7.3 °C 6.2 °C 988.7 hPa SW 6.4 km/h 8.0 km/h 93 % 0.0 mm
02:12 7.3 °C 6.2 °C 988.7 hPa WSW 1.6 km/h 12.9 km/h 93 % 0.0 mm
02:17 7.2 °C 6.1 °C 988.7 hPa WSW 1.6 km/h 12.9 km/h 93 % 0.0 mm
02:22 7.2 °C 6.3 °C 988.7 hPa Calm   12.9 km/h 94 % 0.0 mm
02:27 7.1 °C 6.2 °C 988.7 hPa South 1.6 km/h 8.0 km/h 94 % 0.0 mm
02:32 7.0 °C 6.1 °C 988.7 hPa Calm   8.0 km/h 94 % 0.3 mm
02:37 7.0 °C 6.3 °C 988.7 hPa Calm   4.8 km/h 95 % 0.3 mm
02:42 7.0 °C 6.3 °C 988.7 hPa Calm   4.8 km/h 95 % 0.3 mm
02:47 6.9 °C 6.2 °C 988.7 hPa Calm   3.2 km/h 95 % 0.5 mm
02:52 6.9 °C 6.2 °C 988.4 hPa Calm   3.2 km/h 95 % 0.5 mm
02:57 6.9 °C 6.2 °C 988.4 hPa WSW 1.6 km/h 4.8 km/h 95 % 0.5 mm
03:02 6.9 °C 6.2 °C 988.4 hPa SW 3.2 km/h 4.8 km/h 95 % 0.5 mm
03:07 6.9 °C 6.2 °C 988.0 hPa SW 1.6 km/h 6.4 km/h 95 % 0.8 mm
03:12 6.9 °C 6.2 °C 988.4 hPa Calm   6.4 km/h 95 % 0.8 mm
03:17 6.8 °C 6.1 °C 988.4 hPa Calm   4.8 km/h 95 % 0.8 mm
03:22 6.8 °C 6.1 °C 988.4 hPa Calm   4.8 km/h 95 % 0.8 mm
03:27 6.8 °C 6.1 °C 988.0 hPa Calm   4.8 km/h 95 % 0.5 mm
03:32 6.8 °C 6.2 °C 988.0 hPa Calm   3.2 km/h 96 % 0.5 mm
03:37 6.8 °C 6.2 °C 988.0 hPa Calm   4.8 km/h 96 % 0.5 mm
03:42 6.8 °C 6.2 °C 988.0 hPa WSW 1.6 km/h 4.8 km/h 96 % 0.5 mm
03:52 6.8 °C 6.2 °C 988.0 hPa Calm   3.2 km/h 96 % 0.3 mm
03:57 6.7 °C 6.1 °C 988.0 hPa Calm   3.2 km/h 96 % 0.3 mm
04:02 6.7 °C 6.1 °C 988.0 hPa Calm   3.2 km/h 96 % 0.0 mm
04:12 6.7 °C 6.1 °C 987.7 hPa Calm   3.2 km/h 96 % 0.0 mm
04:17 6.7 °C 6.1 °C 987.7 hPa Calm   1.6 km/h 96 % 0.0 mm
04:22 6.6 °C 6.0 °C 987.7 hPa SW 1.6 km/h 3.2 km/h 96 % 0.0 mm
04:27 6.6 °C 6.0 °C 987.7 hPa SW 1.6 km/h 3.2 km/h 96 % 0.0 mm
04:32 6.6 °C 6.0 °C 987.7 hPa SW 1.6 km/h 3.2 km/h 96 % 0.0 mm
04:37 6.6 °C 6.0 °C 987.7 hPa Calm   3.2 km/h 96 % 0.0 mm
04:42 6.6 °C 6.0 °C 987.7 hPa Calm   3.2 km/h 96 % 0.0 mm
04:47 6.6 °C 6.0 °C 987.7 hPa SW 1.6 km/h 3.2 km/h 96 % 0.0 mm
04:52 6.6 °C 6.0 °C 987.7 hPa Calm   3.2 km/h 96 % 0.0 mm
04:57 6.6 °C 6.0 °C 987.7 hPa SW 1.6 km/h 3.2 km/h 96 % 0.0 mm
05:02 6.6 °C 6.0 °C 987.7 hPa South 1.6 km/h 3.2 km/h 96 % 0.0 mm
05:12 6.6 °C 6.0 °C 988.0 hPa WSW 1.6 km/h 3.2 km/h 96 % 0.0 mm
05:22 6.6 °C 6.0 °C 987.7 hPa Calm   3.2 km/h 96 % 0.3 mm
05:27 6.6 °C 6.0 °C 988.0 hPa Calm   3.2 km/h 96 % 0.3 mm
05:32 6.6 °C 6.0 °C 988.0 hPa Calm   1.6 km/h 96 % 0.5 mm
05:37 6.5 °C 5.9 °C 988.0 hPa Calm   1.6 km/h 96 % 0.5 mm
05:42 6.5 °C 5.9 °C 988.0 hPa Calm   1.6 km/h 96 % 0.5 mm
05:47 6.4 °C 5.8 °C 988.0 hPa Calm   1.6 km/h 96 % 0.5 mm
05:52 6.4 °C 5.8 °C 988.0 hPa Calm   1.6 km/h 96 % 0.5 mm
05:57 6.4 °C 5.8 °C 988.0 hPa Calm   1.6 km/h 96 % 0.5 mm
06:02 6.4 °C 5.8 °C 988.0 hPa Calm   1.6 km/h 96 % 0.5 mm
06:07 6.4 °C 5.8 °C 988.0 hPa Calm     96 % 0.5 mm
06:12 6.4 °C 5.8 °C 988.0 hPa Calm     96 % 0.5 mm
06:22 6.4 °C 5.8 °C 988.0 hPa Calm   1.6 km/h 96 % 0.5 mm
06:27 6.4 °C 5.8 °C 988.0 hPa Calm   1.6 km/h 96 % 0.5 mm
06:32 6.4 °C 5.8 °C 988.4 hPa Calm   1.6 km/h 96 % 0.5 mm
06:37 6.4 °C 5.8 °C 988.0 hPa SW 1.6 km/h 1.6 km/h 96 % 0.5 mm
06:42 6.3 °C 5.7 °C 988.0 hPa SW 1.6 km/h 1.6 km/h 96 % 0.8 mm
06:47 6.3 °C 5.7 °C 988.4 hPa Calm   1.6 km/h 96 % 0.8 mm
06:52 6.3 °C 5.7 °C 988.4 hPa Calm   3.2 km/h 96 % 1.0 mm
06:57 6.3 °C 5.7 °C 988.4 hPa Calm   3.2 km/h 96 % 1.0 mm
07:02 6.2 °C 5.6 °C 988.4 hPa SW 1.6 km/h 1.6 km/h 96 % 0.8 mm
07:09 6.2 °C 5.6 °C 988.4 hPa Calm   3.2 km/h 96 % 0.8 mm
07:17 6.2 °C 5.6 °C 988.4 hPa South 1.6 km/h 3.2 km/h 96 % 0.5 mm
07:22 6.2 °C 5.6 °C 988.4 hPa SW 1.6 km/h 3.2 km/h 96 % 0.8 mm
07:32 6.2 °C 5.6 °C 988.7 hPa WSW 1.6 km/h 4.8 km/h 96 % 1.0 mm
07:37 6.2 °C 5.6 °C 988.7 hPa SE 3.2 km/h 6.4 km/h 96 % 0.8 mm
07:42 6.2 °C 5.6 °C 989.1 hPa Calm   9.7 km/h 96 % 1.0 mm
07:47 6.2 °C 5.6 °C 989.1 hPa South 1.6 km/h 9.7 km/h 96 % 1.3 mm
07:52 6.2 °C 5.6 °C 989.1 hPa SW 1.6 km/h 9.7 km/h 96 % 1.3 mm
07:57 6.1 °C 5.5 °C 989.1 hPa SW 3.2 km/h 8.0 km/h 96 % 1.5 mm
08:02 6.1 °C 5.5 °C 989.1 hPa Calm   8.0 km/h 96 % 2.3 mm
08:12 5.8 °C 5.1 °C 989.1 hPa Calm   9.7 km/h 95 % 2.3 mm
08:22 5.7 °C 5.0 °C 989.1 hPa Calm   9.7 km/h 95 % 2.3 mm
08:27 5.6 °C 4.9 °C 989.4 hPa Calm   4.8 km/h 95 % 2.3 mm
08:32 5.6 °C 4.9 °C 989.4 hPa Calm   4.8 km/h 95 % 2.3 mm
08:37 5.6 °C 4.9 °C 989.4 hPa Calm   3.2 km/h 95 % 2.3 mm
08:42 5.6 °C 4.9 °C 989.4 hPa SW 1.6 km/h 3.2 km/h 95 % 2.3 mm
08:47 5.6 °C 4.7 °C 989.4 hPa Calm   6.4 km/h 94 % 2.3 mm
08:52 5.7 °C 4.8 °C 989.7 hPa Calm   6.4 km/h 94 % 1.8 mm
08:57 5.7 °C 4.8 °C 989.7 hPa Calm   4.8 km/h 94 % 1.0 mm
09:02 5.7 °C 5.0 °C 989.7 hPa WSW 3.2 km/h 4.8 km/h 95 % 1.0 mm
09:07 5.7 °C 5.0 °C 989.7 hPa Calm   3.2 km/h 95 % 0.8 mm
09:12 5.8 °C 5.1 °C 989.7 hPa Calm   3.2 km/h 95 % 0.8 mm
09:17 5.8 °C 5.1 °C 990.1 hPa Calm   3.2 km/h 95 % 0.5 mm
09:22 5.8 °C 5.1 °C 990.1 hPa WSW 1.6 km/h 3.2 km/h 95 % 0.5 mm
09:27 5.8 °C 5.2 °C 990.1 hPa Calm   1.6 km/h 96 % 0.5 mm
09:32 5.8 °C 5.2 °C 990.1 hPa Calm   1.6 km/h 96 % 0.5 mm
09:37 5.9 °C 5.3 °C 990.1 hPa Calm   1.6 km/h 96 % 0.5 mm
09:42 6.1 °C 5.5 °C 990.1 hPa Calm   1.6 km/h 96 % 0.3 mm
09:47 6.2 °C 5.6 °C 990.1 hPa Calm   1.6 km/h 96 % 0.3 mm
09:52 6.4 °C 5.8 °C 990.1 hPa West 1.6 km/h 1.6 km/h 96 % 0.3 mm
09:57 6.6 °C 6.0 °C 990.1 hPa SW 3.2 km/h 4.8 km/h 96 % 0.0 mm
10:02 6.6 °C 6.0 °C 990.1 hPa WSW 1.6 km/h 4.8 km/h 96 % 0.3 mm
10:07 6.8 °C 6.2 °C 990.1 hPa WSW 3.2 km/h 4.8 km/h 96 % 0.3 mm
10:12 6.9 °C 6.2 °C 990.1 hPa SSE 1.6 km/h 8.0 km/h 95 % 0.3 mm
10:17 6.8 °C 5.9 °C 990.1 hPa Calm   8.0 km/h 94 % 0.3 mm
10:22 6.8 °C 5.7 °C 990.1 hPa Calm   8.0 km/h 93 % 0.3 mm
10:27 6.8 °C 5.7 °C 990.4 hPa Calm   6.4 km/h 93 % 0.3 mm
10:32 6.8 °C 5.6 °C 990.4 hPa WSW 1.6 km/h 6.4 km/h 92 % 0.3 mm
10:37 6.7 °C 5.5 °C 990.4 hPa SE 1.6 km/h 11.3 km/h 92 % 0.3 mm
10:42 6.7 °C 5.5 °C 990.7 hPa Calm   11.3 km/h 92 % 0.3 mm
10:52 6.9 °C 5.5 °C 990.7 hPa Calm   6.4 km/h 91 % 0.3 mm
10:57 7.3 °C 5.9 °C 991.1 hPa WSW 1.6 km/h 6.4 km/h 91 % 0.3 mm
11:02 7.5 °C 6.1 °C 991.1 hPa SW 4.8 km/h 6.4 km/h 91 % 0.0 mm
11:07 7.6 °C 5.9 °C 991.1 hPa SSW 4.8 km/h 9.7 km/h 89 % 0.0 mm
11:12 7.5 °C 5.8 °C 991.1 hPa WSW 1.6 km/h 9.7 km/h 89 % 0.0 mm
11:17 7.6 °C 6.1 °C 991.4 hPa SW 1.6 km/h 9.7 km/h 90 % 0.0 mm
11:22 7.4 °C 5.7 °C 991.4 hPa SW 3.2 km/h 8.0 km/h 89 % 0.0 mm
11:27 7.3 °C 5.6 °C 991.4 hPa South 4.8 km/h 6.4 km/h 89 % 0.0 mm
11:32 7.2 °C 5.5 °C 991.4 hPa SSW 6.4 km/h 9.7 km/h 89 % 0.0 mm
11:37 7.2 °C 5.5 °C 991.4 hPa SW 3.2 km/h 9.7 km/h 89 % 0.0 mm
11:42 7.4 °C 5.7 °C 991.8 hPa SSE 1.6 km/h 9.7 km/h 89 % 0.0 mm
11:47 7.4 °C 5.7 °C 991.8 hPa Calm   8.0 km/h 89 % 0.0 mm
11:52 7.4 °C 5.7 °C 991.8 hPa SW 1.6 km/h 8.0 km/h 89 % 0.0 mm
11:57 7.5 °C 5.8 °C 991.8 hPa SW 1.6 km/h 8.0 km/h 89 % 0.0 mm
12:02 7.6 °C 6.2 °C 991.8 hPa Calm   8.0 km/h 91 % 0.0 mm
12:07 7.6 °C 6.1 °C 991.8 hPa SW 4.8 km/h 8.0 km/h 90 % 0.0 mm
12:12 7.4 °C 5.9 °C 991.8 hPa WSW 6.4 km/h 8.0 km/h 90 % 0.0 mm
12:17 6.9 °C 5.2 °C 991.8 hPa SSW 4.8 km/h 8.0 km/h 89 % 0.0 mm
12:22 6.7 °C 5.2 °C 991.8 hPa SW 1.6 km/h 12.9 km/h 90 % 0.3 mm
12:32 6.6 °C 5.4 °C 991.8 hPa WSW 6.4 km/h 12.9 km/h 92 % 0.5 mm
12:37 6.6 °C 5.4 °C 991.8 hPa SW 1.6 km/h 9.7 km/h 92 % 0.5 mm
12:42 6.9 °C 5.8 °C 991.8 hPa SW 1.6 km/h 9.7 km/h 93 % 0.5 mm
12:52 7.4 °C 6.3 °C 991.8 hPa SW 3.2 km/h 6.4 km/h 93 % 0.5 mm
12:57 7.6 °C 6.1 °C 991.8 hPa WSW 4.8 km/h 11.3 km/h 90 % 0.5 mm
13:07 8.0 °C 6.3 °C 992.1 hPa SSW 3.2 km/h 11.3 km/h 89 % 0.5 mm
13:12 8.2 °C 6.2 °C 992.1 hPa WSW 3.2 km/h 9.7 km/h 87 % 0.5 mm
13:17 8.4 °C 6.5 °C 992.1 hPa SW 1.6 km/h 9.7 km/h 88 % 0.5 mm
13:22 8.7 °C 6.8 °C 992.1 hPa South 3.2 km/h 9.7 km/h 88 % 0.3 mm
13:27 8.8 °C 6.8 °C 991.8 hPa Calm   9.7 km/h 87 % 0.0 mm
13:32 8.9 °C 6.9 °C 991.8 hPa Calm   9.7 km/h 87 % 0.0 mm
13:37 8.8 °C 5.9 °C 992.1 hPa SSE 8.0 km/h 9.7 km/h 82 % 0.0 mm
13:52 8.2 °C 6.2 °C 992.4 hPa SSW 1.6 km/h 11.3 km/h 87 % 0.0 mm
13:57 8.0 °C 6.0 °C 992.4 hPa SW 1.6 km/h 8.0 km/h 87 % 0.3 mm
14:02 7.6 °C 5.2 °C 992.4 hPa SSW 6.4 km/h 12.9 km/h 85 % 0.3 mm
14:07 7.1 °C 5.1 °C 992.4 hPa SSE 4.8 km/h 12.9 km/h 87 % 0.3 mm
14:12 6.7 °C 5.0 °C 992.4 hPa SSW 1.6 km/h 12.9 km/h 89 % 0.5 mm
14:17 6.4 °C 4.7 °C 992.4 hPa SW 3.2 km/h 12.9 km/h 89 % 0.8 mm
14:22 6.3 °C 4.8 °C 992.4 hPa WSW 1.6 km/h 8.0 km/h 90 % 0.8 mm
14:27 6.3 °C 4.9 °C 992.4 hPa WSW 1.6 km/h 8.0 km/h 91 % 0.8 mm
14:32 6.7 °C 5.8 °C 992.4 hPa SW 4.8 km/h 6.4 km/h 94 % 1.0 mm
14:37 7.2 °C 6.1 °C 992.4 hPa SW 3.2 km/h 6.4 km/h 93 % 1.0 mm
14:42 7.5 °C 6.3 °C 992.4 hPa Calm   6.4 km/h 92 % 1.0 mm
14:47 7.9 °C 6.8 °C 992.4 hPa SW 3.2 km/h 6.4 km/h 93 % 1.0 mm
14:52 8.2 °C 6.5 °C 992.4 hPa SW 4.8 km/h 6.4 km/h 89 % 0.8 mm
14:57 8.3 °C 6.4 °C 992.4 hPa WSW 4.8 km/h 9.7 km/h 88 % 0.8 mm
15:02 8.7 °C 6.3 °C 992.4 hPa East 1.6 km/h 9.7 km/h 85 % 0.8 mm
15:07 8.6 °C 6.2 °C 992.4 hPa South 3.2 km/h 9.7 km/h 85 % 0.5 mm
15:12 8.2 °C 5.5 °C 992.4 hPa ESE 3.2 km/h 12.9 km/h 83 % 0.5 mm
15:17 7.9 °C 5.5 °C 992.8 hPa WSW 4.8 km/h 12.9 km/h 85 % 0.3 mm
15:22 7.8 °C 5.4 °C 992.8 hPa SW 3.2 km/h 12.9 km/h 85 % 0.3 mm
15:32 8.1 °C 5.9 °C 992.8 hPa WSW 1.6 km/h 11.3 km/h 86 % 0.0 mm
15:37 8.2 °C 5.7 °C 993.1 hPa SW 3.2 km/h 9.7 km/h 84 % 0.0 mm
15:42 8.2 °C 5.7 °C 993.1 hPa SSE 1.6 km/h 9.7 km/h 84 % 0.0 mm
15:52 8.0 °C 5.3 °C 993.1 hPa East 1.6 km/h 11.3 km/h 83 % 0.0 mm
15:57 7.8 °C 5.3 °C 993.5 hPa SE 1.6 km/h 11.3 km/h 84 % 0.0 mm
16:02 7.8 °C 5.4 °C 993.5 hPa SSE 3.2 km/h 9.7 km/h 85 % 0.0 mm
16:07 7.7 °C 5.3 °C 993.5 hPa Calm   11.3 km/h 85 % 0.0 mm
16:12 7.6 °C 5.6 °C 993.5 hPa WSW 4.8 km/h 11.3 km/h 87 % 0.0 mm
16:17 7.3 °C 5.4 °C 993.5 hPa SW 3.2 km/h 11.3 km/h 88 % 0.3 mm
16:22 7.2 °C 5.5 °C 993.5 hPa SW 1.6 km/h 4.8 km/h 89 % 0.3 mm
16:27 7.3 °C 5.3 °C 993.5 hPa WSW 1.6 km/h 4.8 km/h 87 % 0.3 mm
16:32 7.3 °C 5.3 °C 993.5 hPa SSW 3.2 km/h 4.8 km/h 87 % 0.3 mm
16:37 7.2 °C 4.8 °C 993.8 hPa Calm   4.8 km/h 85 % 0.3 mm
16:42 7.0 °C 4.7 °C 993.8 hPa SSE 3.2 km/h 6.4 km/h 85 % 0.3 mm
16:47 7.0 °C 4.8 °C 993.8 hPa SW 6.4 km/h 6.4 km/h 86 % 0.3 mm
16:52 7.1 °C 4.9 °C 993.8 hPa SSW 1.6 km/h 8.0 km/h 86 % 0.3 mm
16:57 7.2 °C 4.8 °C 994.1 hPa SW 4.8 km/h 8.0 km/h 85 % 0.3 mm
17:02 7.4 °C 5.0 °C 994.1 hPa SW 3.2 km/h 8.0 km/h 85 % 0.3 mm
17:07 7.5 °C 5.1 °C 994.1 hPa SSW 3.2 km/h 8.0 km/h 85 % 0.3 mm
17:12 7.4 °C 4.9 °C 994.5 hPa WSW 1.6 km/h 8.0 km/h 84 % 0.3 mm
17:17 7.3 °C 4.9 °C 994.5 hPa SSW 1.6 km/h 8.0 km/h 85 % 0.0 mm
17:22 7.1 °C 4.7 °C 994.5 hPa SW 4.8 km/h 8.0 km/h 85 % 0.0 mm
17:27 6.9 °C 4.7 °C 994.5 hPa Calm   11.3 km/h 86 % 0.0 mm
17:32 6.7 °C 4.7 °C 994.8 hPa SW 1.6 km/h 11.3 km/h 87 % 0.0 mm
17:42 6.3 °C 4.5 °C 995.1 hPa Calm   6.4 km/h 88 % 0.0 mm
17:47 6.2 °C 4.4 °C 995.1 hPa WSW 3.2 km/h 3.2 km/h 88 % 0.0 mm
17:52 6.1 °C 4.4 °C 995.1 hPa Calm   3.2 km/h 89 % 0.0 mm
17:57 5.9 °C 4.2 °C 995.1 hPa Calm   3.2 km/h 89 % 0.0 mm
18:02 5.8 °C 4.3 °C 995.1 hPa Calm   3.2 km/h 90 % 0.0 mm
18:07 5.6 °C 4.1 °C 995.1 hPa Calm   1.6 km/h 90 % 0.0 mm
18:12 5.3 °C 3.8 °C 995.5 hPa Calm     90 % 0.0 mm
18:17 5.2 °C 3.9 °C 995.5 hPa Calm     91 % 0.0 mm
18:32 4.8 °C 3.5 °C 995.5 hPa Calm   1.6 km/h 91 % 0.0 mm
18:42 4.6 °C 3.4 °C 995.8 hPa Calm     92 % 0.0 mm
18:52 5.2 °C 4.0 °C 996.5 hPa ENE 3.2 km/h 19.3 km/h 92 % 0.0 mm
18:57 5.1 °C 3.9 °C 996.5 hPa ENE 6.4 km/h 19.3 km/h 92 % 0.5 mm
19:02 4.9 °C 3.7 °C 996.5 hPa NE 1.6 km/h 19.3 km/h 92 % 0.5 mm
19:07 4.9 °C 3.9 °C 996.8 hPa NNE 6.4 km/h 16.1 km/h 93 % 0.8 mm
19:12 4.8 °C 3.8 °C 996.5 hPa NE 4.8 km/h 12.9 km/h 93 % 1.0 mm
19:17 4.8 °C 3.8 °C 996.8 hPa Calm   11.3 km/h 93 % 1.3 mm
19:22 4.7 °C 3.8 °C 996.8 hPa Calm   6.4 km/h 94 % 1.3 mm
19:27 4.7 °C 3.7 °C 996.8 hPa NE 1.6 km/h 6.4 km/h 93 % 1.3 mm
19:32 4.6 °C 3.6 °C 996.8 hPa Calm   3.2 km/h 93 % 1.5 mm
19:37 4.5 °C 3.6 °C 997.2 hPa Calm   6.4 km/h 94 % 1.5 mm
19:42 4.5 °C 3.6 °C 997.2 hPa NE 1.6 km/h 6.4 km/h 94 % 1.5 mm
19:47 4.4 °C 3.5 °C 997.5 hPa NE 1.6 km/h 6.4 km/h 94 % 1.5 mm
19:52 4.4 °C 3.5 °C 997.5 hPa NE 1.6 km/h 4.8 km/h 94 % 1.5 mm
19:57 4.4 °C 3.5 °C 997.5 hPa NE 3.2 km/h 4.8 km/h 94 % 1.0 mm
20:07 4.3 °C 3.4 °C 997.5 hPa ENE 4.8 km/h 6.4 km/h 94 % 0.5 mm
20:12 4.3 °C 3.4 °C 997.9 hPa NE 1.6 km/h 6.4 km/h 94 % 0.5 mm
20:17 4.2 °C 3.3 °C 997.9 hPa NE 1.6 km/h 4.8 km/h 94 % 0.3 mm
20:22 4.1 °C 3.2 °C 997.9 hPa Calm   4.8 km/h 94 % 0.3 mm
20:32 4.0 °C 3.3 °C 998.2 hPa Calm   3.2 km/h 95 % 0.0 mm
20:37 4.0 °C 3.3 °C 998.5 hPa Calm   1.6 km/h 95 % 0.0 mm
20:42 4.0 °C 3.3 °C 998.5 hPa Calm   1.6 km/h 95 % 0.0 mm
20:47 4.1 °C 3.4 °C 998.5 hPa Calm   1.6 km/h 95 % 0.0 mm
20:52 4.1 °C 3.4 °C 998.5 hPa Calm   1.6 km/h 95 % 0.0 mm
20:57 4.0 °C 3.3 °C 998.5 hPa Calm   1.6 km/h 95 % 0.0 mm
21:02 3.9 °C 3.2 °C 998.9 hPa Calm   1.6 km/h 95 % 0.0 mm
21:07 3.9 °C 3.2 °C 998.9 hPa Calm   1.6 km/h 95 % 0.0 mm
21:12 3.8 °C 3.1 °C 998.9 hPa Calm   1.6 km/h 95 % 0.0 mm
21:17 3.8 °C 3.2 °C 999.2 hPa NE 1.6 km/h 1.6 km/h 96 % 0.0 mm
21:22 3.9 °C 3.3 °C 999.2 hPa Calm   3.2 km/h 96 % 0.0 mm
21:32 4.2 °C 3.6 °C 999.2 hPa NE 3.2 km/h 11.3 km/h 96 % 0.0 mm
21:37 4.2 °C 3.5 °C 999.5 hPa NE 3.2 km/h 11.3 km/h 95 % 0.0 mm
21:42 4.2 °C 3.5 °C 999.5 hPa NE 3.2 km/h 11.3 km/h 95 % 0.0 mm
21:52 4.2 °C 3.5 °C 999.5 hPa ENE 3.2 km/h 9.7 km/h 95 % 0.0 mm
22:02 4.2 °C 3.3 °C 999.9 hPa NE 1.6 km/h 11.3 km/h 94 % 0.0 mm
22:07 4.2 °C 3.5 °C 999.9 hPa ENE 3.2 km/h 11.3 km/h 95 % 0.0 mm
22:12 4.2 °C 3.5 °C 999.9 hPa NE 1.6 km/h 6.4 km/h 95 % 0.0 mm
22:17 4.2 °C 3.3 °C 1000.2 hPa NE 1.6 km/h 4.8 km/h 94 % 0.0 mm
22:22 4.2 °C 3.5 °C 1000.2 hPa ENE 1.6 km/h 6.4 km/h 95 % 0.0 mm
22:27 4.2 °C 3.3 °C 1000.2 hPa NE 4.8 km/h 9.7 km/h 94 % 0.0 mm
22:32 4.2 °C 3.3 °C 1000.6 hPa Calm   9.7 km/h 94 % 0.0 mm
22:37 4.2 °C 3.3 °C 1000.6 hPa Calm   9.7 km/h 94 % 0.0 mm
22:42 4.2 °C 3.3 °C 1000.6 hPa Calm   6.4 km/h 94 % 0.0 mm
22:47 4.2 °C 3.3 °C 1000.6 hPa NE 6.4 km/h 11.3 km/h 94 % 0.0 mm
22:52 4.2 °C 3.2 °C 1000.9 hPa ENE 3.2 km/h 12.9 km/h 93 % 0.0 mm
22:57 4.2 °C 3.3 °C 1000.9 hPa ENE 8.0 km/h 12.9 km/h 94 % 0.0 mm
23:12 4.2 °C 3.2 °C 1001.2 hPa SSE 3.2 km/h 11.3 km/h 93 % 0.0 mm
23:17 4.2 °C 3.3 °C 1001.2 hPa East 3.2 km/h 11.3 km/h 94 % 0.0 mm
23:22 4.2 °C 3.3 °C 1001.6 hPa SE 1.6 km/h 9.7 km/h 94 % 0.0 mm
23:27 4.3 °C 3.4 °C 1001.6 hPa ENE 3.2 km/h 9.7 km/h 94 % 0.0 mm
23:32 4.3 °C 3.4 °C 1001.9 hPa SE 1.6 km/h 12.9 km/h 94 % 0.0 mm
23:37 4.2 °C 3.0 °C 1001.9 hPa NE 9.7 km/h 16.1 km/h 92 % 0.0 mm
23:42 4.1 °C 2.8 °C 1001.9 hPa SSW 3.2 km/h 17.7 km/h 91 % 0.0 mm
23:47 3.9 °C 2.6 °C 1002.3 hPa East 8.0 km/h 17.7 km/h 91 % 0.0 mm
23:52 3.8 °C 2.3 °C 1002.3 hPa NE 8.0 km/h 16.1 km/h 90 % 0.0 mm
23:57 3.6 °C 2.1 °C 1002.3 hPa NE 3.2 km/h 16.1 km/h 90 % 0.0 mm
Meteo18
Compliments of Weather Underground - 4 mb

Script developed by  Jim McMurry - jmcmurry@mwt.net Adapted for the template by  Wim van der Kuil - Leuven-Template.eu

You find our weather info also at:

European Weather Network

Weather Underground

Equipment we use:

Weather-station
Davis Vue

Weather-program
Meteohub

Weather-server
Raspberry PI 2 B+

Provider
1 and 1

Davis Vue

Meteohub

Raspberry PI 2 B+

1 and 1